Simultaneous Nadir Overpasses (SNOs) Predictions

Prediction of SNOs between METOP-A and TERRA Satellite Orbit:

Table of predicted SNOs for the next 14.0 days since TLE Epoch: 12/19/2020
Index Date (METOP-A) Time (METOP-A) Lat,Lon (METOP-A) SZA (METOP-A ) Date (TERRA) Time (TERRA) Lat,Lon (TERRA) SZA (TERRA ) Distance(km) Time Diff (sec)
1 12/20/2020 20:45:52 -81.36, 96.54 72.46 12/20/2020 20:46:59 -81.37, 96.47 72.44 1.38 67
2 12/20/2020 21:36:33 81.36, -96.15 107.54 12/20/2020 21:36:26 81.36, -96.15 107.53 0.93 7
3 12/23/2020 16:20:15 -81.36, 162.94 72.52 12/23/2020 16:21:14 -81.37, 162.86 72.50 1.40 59
4 12/23/2020 17:10:56 81.36, -29.79 107.48 12/23/2020 17:10:41 81.35, -29.78 107.46 1.24 15
5 12/26/2020 11:54:38 -81.36,-130.68 72.64 12/26/2020 11:55:29 -81.36,-130.78 72.63 1.75 51
6 12/26/2020 12:45:18 81.35, 36.95 107.38 12/26/2020 12:44:55 81.37, 36.93 107.38 1.76 23
7 12/29/2020 07:29:00 -81.36, -64.32 72.83 12/29/2020 07:29:43 -81.36, -64.47 72.83 2.62 43
8 12/29/2020 08:19:40 81.35, 103.28 107.20 12/29/2020 08:19:09 81.36, 103.22 107.18 1.28 31
9 01/01/2021 03:03:23 -81.36, 2.03 73.07 01/01/2021 03:03:57 -81.37, 2.18 73.04 2.68 34



Historial Predications of SNOs between METOP-A and TERRA
